Location: Brad
(46.1333°N, 22.7833°E)
Time: 07:34:26
(UTC+00:00)

Cosmos 1461 - Visible Passes

Search period start: 24 September 2023 00:00
Search period end: 04 October 2023 00:00
Orbit: 491 x 630 km, 65.0° (Epoch: 23 September)

Date Brightness Start Highest point End Pass type
(mag) Time Alt. Az. Time Alt. Az. Time Alt. Az.
24 Sep 6.0 00:22:10 13° ENE 00:22:10 13° ENE 00:22:56 10° ENE visible
24 Sep 3.5 01:58:06 51° NNW 01:58:06 51° NNW 02:02:10 10° NNE visible
24 Sep 5.2 03:35:07 10° WNW 03:37:20 13° NNW 03:39:32 10° N visible
25 Sep 6.0 00:20:58 14° ENE 00:20:58 14° ENE 00:21:44 10° NE visible
25 Sep 4.0 01:56:53 38° NNW 01:56:53 38° NNW 02:00:34 10° NNE visible
25 Sep 5.3 03:34:36 10° NW 03:36:04 11° NNW 03:37:32 10° N visible
26 Sep 6.0 00:19:41 14° NE 00:19:41 14° NE 00:20:23 10° NE visible
26 Sep 4.4 01:55:36 30° NNW 01:55:36 30° NNW 01:58:55 10° NNE visible
27 Sep 6.0 00:18:20 14° NE 00:18:20 14° NE 00:18:56 10° NE visible
27 Sep 4.7 01:54:15 24° NNW 01:54:15 24° NNW 01:57:11 10° NNE visible
28 Sep 6.1 00:16:56 13° NE 00:16:56 13° NE 00:17:24 10° NE visible
28 Sep 5.0 01:52:50 20° NNW 01:52:50 20° NNW 01:55:25 10° NNE visible
29 Sep 6.2 00:15:28 12° NE 00:15:28 12° NE 00:15:46 10° NE visible
29 Sep 5.2 01:51:22 17° NNW 01:51:22 17° NNW 01:53:34 10° N visible
30 Sep 6.3 00:13:57 11° NNE 00:13:57 11° NNE 00:14:06 10° NNE visible
30 Sep 5.4 01:49:51 14° NNW 01:49:51 14° NNW 01:51:39 10° N visible
01 Oct 5.6 01:48:18 12° NNW 01:48:18 12° NNW 01:49:36 10° N visible
02 Oct 5.7 01:46:42 11° NNW 01:46:42 11° NNW 01:47:17 10° N visible
